Location: *
(43.4667°N, 11.6833°E)
Time: 03:03:12
(UTC+00:00)

CZ-2C R/B - Pass Details

Date: 19 July 2019
Orbit: 704 x 908 km, 98.1° (Epoch: 24 August)

Event Time Altitude Azimuth Distance (km) Brightness Sun altitude
Exits shadow 20:08:34 - 177° (S) 2,687 5.4 -12.2°
Reaches altitude 10° 20:09:12 10° 178° (S) 2,443 5.2 -12.3°
Maximum altitude 20:14:33 62° 259° (WSW) 900 3.5 -13.0°
Drops below altitude 10° 20:19:39 10° 340° (NNW) 2,326 6.6 -13.6°
Sets 20:21:56 0° 344° (NNW) 3,228 7.5 -13.9°
